Weather History for Madison, SD

Change the Weather History Date:

Thursday, November 29, 2012

  Actual Average Record
Temperature  
Mean Temperature 28 °F -  
Max Temperature 41 °F 33 °F 50 °F (2014)
Min Temperature 14 °F 15 °F 8 °F (2014)
Degree Days  
Heating Degree Days 38    
Moisture  
Dew Point 23 °F    
Average Humidity 86    
Maximum Humidity 100    
Minimum Humidity 56    
Precipitation  
Precipitation 0.00 in - - ()
Sea Level Pressure  
Sea Level Pressure 29.97 in    
Wind  
Wind Speed 7 mph (ENE)    
Max Wind Speed 17 mph    
Max Gust Speed 21 mph    
Visibility 10 miles    
Events      
Averages and records for this station are not official NWS values.
T = Trace of Precipitation, MM = Missing Value Source: NWS Daily Summary

Daily Weather History Graph

Daily Weather History Graph

Search for Another Location

Airport:

Trip Planner

Search our weather history database for the weather conditions in past years. The results will help you decide how hot, cold, wet, or windy it might be!

Date:

Astronomy

Nov. 29, 2012 Rise Set
Actual Time 7:41 AM CST 4:52 PM CST
Civil Twilight 7:09 AM CST 5:24 PM CST
Nautical Twilight 6:33 AM CST 6:00 PM CST
Astronomical Twilight 5:58 AM CST 6:34 PM CST
Moon 5:55 PM CST (11/29) 8:29 AM CST (11/29)
Length of Visible Light 10h 15m
Length of Day
9h 10m
Full, 99% of the Moon is Illuminated
Nov 29
Full
Dec 6
Last Quarter
Dec 13
New
Dec 19
First Quarter
Dec 28
Full

Hourly Weather History & Observations

Time (CST) Temp. Windchill Dew Point Humidity Pressure Visibility Wind Dir Wind Speed Gust Speed Precip Events Conditions
12:00 AM 23.0 °F 18.4 °F 23.0 °F 100% 29.99 in 10.0 mi SE 3.5 mph - N/A   Clear
12:20 AM 21.2 °F - 21.2 °F 100% 29.99 in 10.0 mi Calm Calm - N/A   Clear
12:40 AM 19.4 °F - 19.4 °F 100% 29.99 in 10.0 mi Calm Calm - N/A   Clear
1:00 AM 17.6 °F 12.3 °F 17.6 °F 100% 29.99 in 10.0 mi ENE 3.5 mph - N/A   Clear
1:20 AM 19.4 °F 14.3 °F 19.4 °F 100% 29.99 in 10.0 mi East 3.5 mph - N/A   Clear
1:40 AM 17.6 °F 12.3 °F 17.6 °F 100% 29.99 in 10.0 mi ENE 3.5 mph - N/A   Clear
2:00 AM 17.6 °F 10.7 °F 17.6 °F 100% 29.98 in 10.0 mi ENE 4.6 mph - N/A   Clear
2:20 AM 17.6 °F 12.3 °F 17.6 °F 100% 29.99 in 10.0 mi NE 3.5 mph - N/A   Clear
2:40 AM 17.6 °F 12.3 °F 17.6 °F 100% 29.99 in 10.0 mi ENE 3.5 mph - N/A   Clear
3:00 AM 17.6 °F 12.3 °F 17.6 °F 100% 29.99 in 10.0 mi NE 3.5 mph - N/A   Clear
3:20 AM 17.6 °F 12.3 °F 17.6 °F 100% 29.99 in 10.0 mi NE 3.5 mph - N/A   Clear
3:40 AM 15.8 °F 10.2 °F 15.8 °F 100% 29.99 in 10.0 mi East 3.5 mph - N/A   Clear
4:00 AM 15.8 °F 10.2 °F 15.8 °F 100% 29.99 in 10.0 mi NE 3.5 mph - N/A   Clear
4:20 AM 15.8 °F 8.6 °F 15.8 °F 100% 29.98 in 10.0 mi ENE 4.6 mph - N/A   Clear
4:40 AM 15.8 °F 10.2 °F 15.8 °F 100% 29.98 in 10.0 mi NE 3.5 mph - N/A   Clear
5:00 AM 15.8 °F 8.6 °F 15.8 °F 100% 29.98 in 10.0 mi NE 4.6 mph - N/A   Clear
5:20 AM 15.8 °F 8.6 °F 15.8 °F 100% 29.98 in 10.0 mi ENE 4.6 mph - N/A   Clear
5:40 AM 15.8 °F 8.6 °F 15.8 °F 100% 29.97 in 10.0 mi ENE 4.6 mph - N/A   Clear
6:00 AM 15.8 °F 8.6 °F 15.8 °F 100% 29.97 in 10.0 mi NNE 4.6 mph - N/A   Clear
6:20 AM 15.8 °F - 15.8 °F 100% 29.98 in 10.0 mi Calm Calm - N/A   Clear
6:40 AM 17.6 °F 12.3 °F 17.6 °F 100% 29.98 in 10.0 mi NNE 3.5 mph - N/A   Clear
7:00 AM 17.6 °F 9.3 °F 17.6 °F 100% 29.98 in 10.0 mi NE 5.8 mph - N/A   Clear
7:20 AM 14.0 °F 6.5 °F 14.0 °F 100% 29.98 in 10.0 mi East 4.6 mph - N/A   Clear
7:40 AM 15.8 °F 10.2 °F 15.8 °F 100% 29.99 in 10.0 mi NE 3.5 mph - N/A   Clear
8:00 AM 15.8 °F 7.2 °F 15.8 °F 100% 29.99 in 10.0 mi ENE 5.8 mph - N/A   Clear
8:20 AM 17.6 °F 8.2 °F 17.6 °F 100% 30.00 in 10.0 mi ENE 6.9 mph - N/A   Clear
8:40 AM 23.0 °F 13.9 °F 23.0 °F 100% 30.00 in 10.0 mi NE 8.1 mph - N/A   Clear
9:00 AM 24.8 °F 16.9 °F 24.8 °F 100% 30.00 in 10.0 mi ENE 6.9 mph - N/A   Clear
9:20 AM 24.8 °F 15.3 °F 24.8 °F 100% 30.01 in 10.0 mi ENE 9.2 mph - N/A   Clear
9:40 AM 26.6 °F 15.7 °F 26.6 °F 100% 30.00 in 10.0 mi ENE 12.7 mph - N/A   Clear
10:00 AM 28.4 °F 19.1 °F 28.4 °F 100% 30.00 in 10.0 mi East 10.4 mph - N/A   Clear
10:20 AM 32.0 °F 22.5 °F 28.4 °F 87% 30.00 in 10.0 mi East 12.7 mph - N/A   Clear
10:40 AM 32.0 °F 24.2 °F 28.4 °F 87% 30.01 in 10.0 mi East 9.2 mph - N/A   Clear
11:00 AM 33.8 °F 26.4 °F 28.4 °F 81% 30.01 in 10.0 mi East 9.2 mph - N/A   Clear
11:20 AM 35.6 °F 28.0 °F 28.4 °F 75% 29.99 in 10.0 mi East 10.4 mph - N/A   Clear
11:40 AM 35.6 °F 27.1 °F 26.6 °F 70% 29.98 in 10.0 mi East 12.7 mph - N/A   Clear
12:00 PM 37.4 °F 31.4 °F 26.6 °F 65% 29.97 in 10.0 mi ESE 8.1 mph - N/A   Clear
12:20 PM 37.4 °F 29.8 °F 26.6 °F 65% 29.97 in 10.0 mi East 11.5 mph - N/A   Clear
12:40 PM 39.2 °F 32.0 °F 26.6 °F 61% 29.96 in 10.0 mi East 11.5 mph 17.3 mph N/A   Clear
1:00 PM 41.0 °F 34.3 °F 26.6 °F 57% 29.96 in 10.0 mi East 11.5 mph - N/A   Clear
1:20 PM 41.0 °F 34.3 °F 26.6 °F 57% 29.95 in 10.0 mi East 11.5 mph - N/A   Clear
1:40 PM 41.0 °F 33.9 °F 26.6 °F 57% 29.93 in 10.0 mi East 12.7 mph - N/A   Clear
2:00 PM 41.0 °F 33.5 °F 26.6 °F 57% 29.92 in 10.0 mi East 13.8 mph - N/A   Clear
2:20 PM 41.0 °F 32.5 °F 26.6 °F 57% 29.90 in 10.0 mi East 17.3 mph - N/A   Clear
2:40 PM 41.0 °F 32.8 °F 26.6 °F 57% 29.91 in 10.0 mi East 16.1 mph - N/A   Clear
3:00 PM 41.0 °F 33.1 °F 26.6 °F 57% 29.91 in 10.0 mi East 15.0 mph - N/A   Clear
3:20 PM 39.2 °F 31.2 °F 24.8 °F 56% 29.91 in 10.0 mi East 13.8 mph - N/A   Clear
3:40 PM 39.2 °F 32.0 °F 24.8 °F 56% 29.92 in 10.0 mi East 11.5 mph - N/A   Clear
4:00 PM 37.4 °F 29.8 °F 24.8 °F 60% 29.92 in 10.0 mi East 11.5 mph - N/A   Clear
4:20 PM 35.6 °F 27.1 °F 24.8 °F 65% 29.94 in 10.0 mi ENE 12.7 mph - N/A   Clear
4:40 PM 33.8 °F 24.3 °F 24.8 °F 70% 29.93 in 10.0 mi East 13.8 mph - N/A   Clear
5:00 PM 32.0 °F 23.0 °F 24.8 °F 75% 29.95 in 10.0 mi East 11.5 mph 20.7 mph N/A   Partly Cloudy
5:20 PM 32.0 °F 22.5 °F 24.8 °F 75% 29.94 in 10.0 mi East 12.7 mph - N/A   Mostly Cloudy
5:40 PM 32.0 °F 22.1 °F 24.8 °F 75% 29.95 in 10.0 mi East 13.8 mph 19.6 mph N/A   Overcast
6:00 PM 32.0 °F 21.6 °F 24.8 °F 75% 29.94 in 10.0 mi East 15.0 mph 19.6 mph N/A   Overcast
6:20 PM 32.0 °F 20.8 °F 24.8 °F 75% 29.94 in 10.0 mi East 17.3 mph - N/A   Mostly Cloudy
6:40 PM 32.0 °F 22.1 °F 24.8 °F 75% 29.95 in 10.0 mi East 13.8 mph 17.3 mph N/A   Mostly Cloudy
7:00 PM 32.0 °F 22.5 °F 24.8 °F 75% 29.95 in 10.0 mi East 12.7 mph - N/A   Mostly Cloudy
7:20 PM 30.2 °F 21.9 °F 24.8 °F 80% 29.96 in 10.0 mi ENE 9.2 mph - N/A   Scattered Clouds
7:40 PM 28.4 °F 19.7 °F 24.8 °F 86% 29.97 in 10.0 mi East 9.2 mph - N/A   Clear
8:00 PM 28.4 °F 19.1 °F 24.8 °F 86% 29.97 in 10.0 mi ENE 10.4 mph - N/A   Partly Cloudy
8:20 PM 28.4 °F 19.1 °F 24.8 °F 86% 29.97 in 10.0 mi ENE 10.4 mph - N/A   Clear
8:40 PM 28.4 °F 19.7 °F 26.6 °F 93% 29.97 in 10.0 mi ENE 9.2 mph - N/A   Clear
9:00 PM 28.4 °F 19.1 °F 26.6 °F 93% 29.97 in 10.0 mi ENE 10.4 mph - N/A   Clear
9:20 PM 28.4 °F 20.4 °F 26.6 °F 93% 29.97 in 10.0 mi ENE 8.1 mph - N/A   Clear
9:40 PM 30.2 °F 21.3 °F 26.6 °F 86% 29.98 in 10.0 mi NE 10.4 mph - N/A   Scattered Clouds
10:00 PM 30.2 °F 21.9 °F 26.6 °F 86% 29.98 in 10.0 mi NE 9.2 mph - N/A   Partly Cloudy
10:20 PM 28.4 °F 18.0 °F 26.6 °F 93% 29.98 in 10.0 mi NE 12.7 mph - N/A   Clear
10:40 PM 28.4 °F 18.0 °F 26.6 °F 93% 29.99 in 10.0 mi NE 12.7 mph - N/A   Clear
11:00 PM 28.4 °F 18.0 °F 26.6 °F 93% 29.98 in 10.0 mi NE 12.7 mph - N/A   Clear
11:20 PM 26.6 °F 16.2 °F 26.6 °F 100% 29.98 in 10.0 mi NE 11.5 mph - N/A   Clear
11:40 PM 26.6 °F 16.2 °F 26.6 °F 100% 29.99 in 10.0 mi NNE 11.5 mph - N/A   Clear